Location: Casilda
(33.0440°S, 61.1680°W)
Time: 16:48:04
(UTC-03:00)

ISS - Pass Details

Date: 01 March 2021
Orbit: 417 x 422 km, 51.6° (Epoch: 27 February)

Event Time Altitude Azimuth Distance (km) Brightness Sun altitude
Rises 21:56:02 0° 220° (SW) 2,400 1.2 -27.7°
Reaches altitude 10° 21:58:14 10° 212° (SSW) 1,528 -0.2 -28.0°
Enters shadow 21:59:12 17° 205° (SSW) 1,171 -0.9 -28.2°
